Stations météo

Publicité
Strasbourg, France (7190): Température de l'air & dewpoint: 14.02.2018 01:00:00 - 20.02.2018 01:00:00 (CET)Strasbourg, France (7190): Température de l'air 5cm: 14.02.2018 01:00:00 - 20.02.2018 01:00:00 (CET)Strasbourg, France (7190): Température de l'air -20cm & Température de l'air -100cm: 14.02.2018 01:00:00 - 20.02.2018 01:00:00 (CET)Strasbourg, France (7190): Vitesse du vent & gusts: 14.02.2018 01:00:00 - 20.02.2018 01:00:00 (CET)Strasbourg, France (7190): Direction du vent: 14.02.2018 01:00:00 - 20.02.2018 01:00:00 (CET)Strasbourg, France (7190): reduced air pressure: 14.02.2018 01:00:00 - 20.02.2018 01:00:00 (CET)Strasbourg, France (7190): visibility: 14.02.2018 01:00:00 - 20.02.2018 01:00:00 (CET)Strasbourg, France (7190): Ensoleillement: 14.02.2018 01:00:00 - 20.02.2018 01:00:00 (CET)Strasbourg, France (7190): Quantités de précipitations: 14.02.2018 01:00:00 - 20.02.2018 01:00:00 (CET)
Date & Time tt [°C] td [°C] tt 5cm [°C] tt -20cm [°C] tt -100cm [°C] ff [km/h] ff [knt] fx [km/h] fx [knt] dd ppp [hPa] vv [km] sd [min] rr [mm]
20.02.2018 01:00:00 0,8 -1,0 0,2 3,0 5,9 6 4 8 4 N 1017,5 6 0 0,0
20.02.2018 00:00:00 1,0 -1,1 0,6 3,1 5,9 4 2 8 4 NNE 1017,5 6 0 0,0
19.02.2018 23:00:00 1,1 -1,0 0,6 3,1 5,9 5 3 8 4 N 1017,7 7 0 0,0
19.02.2018 22:00:00 1,3 -0,9 0,8 3,2 5,9 4 2 6 3 N 1018,3 8 0 0,0
19.02.2018 21:00:00 1,3 -1,3 0,9 3,2 5,9 3 2 7 4 NNE 1018,3 8 0 0,0
19.02.2018 20:00:00 1,4 -1,0 0,9 3,2 5,9 5 3 7 4 N 1018,5 10 0 0,0
19.02.2018 19:00:00 1,7 -2,1 0,9 3,3 5,9 5 3 9 5 NNE 1018,8 12 0 0,0
19.02.2018 18:00:00 2,2 -2,3 1,8 3,2 5,9 2 1 11 6 NNE 1018,8 16 0 0,0
19.02.2018 17:00:00 2,5 -2,8 2,5 3,1 5,9 4 2 9 5 NNW 1019,0 17 0 0,0
19.02.2018 16:00:00 2,7 -3,2 3,3 3,1 5,9 3 2 7 4 NNW 1019,1 18 0 0,0
19.02.2018 15:00:00 2,6 -2,5 3,2 2,9 5,9 5 3 9 5 NNE 1019,4 16 0 0,0
19.02.2018 14:00:00 2,7 -2,2 3,5 2,8 5,9 4 2 10 5 NE 1020,0 16 0 0,0
19.02.2018 13:00:00 2,5 -1,7 3,6 2,8 5,9 5 3 9 5 N 1020,2 12 0 0,0
19.02.2018 12:00:00 2,4 -1,0 3,5 2,7 5,9 5 3 9 5 N 1020,8 10 0 0,0
19.02.2018 11:00:00 2,0 -1,3 2,4 2,7 5,9 6 4 17 9 NNE 1021,1 8 0 0,0
19.02.2018 10:00:00 1,6 -0,7 1,4 2,7 5,9 9 5 12 6 N 1021,4 8 0 0,0
19.02.2018 09:00:00 0,9 -0,7 0,6 2,7 5,9 8 4 14 8 N 1021,6 6 0 0,0
19.02.2018 08:00:00 0,6 -0,7 0,3 2,8 5,9 6 3 10 6 N 1021,9 5 0 0,0
19.02.2018 07:00:00 0,5 -0,5 0,3 2,8 5,9 6 4 10 5 N 1021,9 4,2 0 0,0
19.02.2018 06:00:00 0,5 -0,6 0,3 2,8 5,9 7 4 12 6 N 1021,8 4,4 0 0,0
19.02.2018 05:00:00 0,6 -0,4 0,0 2,9 5,9 6 4 9 5 NNW 1022,3 4,7 0 0,0
19.02.2018 04:00:00 0,5 -0,8 -0,2 3,0 5,9 4 2 8 5 NNW 1022,4 6 0 0,0
19.02.2018 03:00:00 0,7 -0,8 0,2 3,0 5,9 4 2 13 7 NNW 1023,0 6 0 0,0
19.02.2018 02:00:00 1,0 -0,6 0,6 3,0 5,9 7 4 11 6 NE 1023,5 5 0 0,0
19.02.2018 01:00:00 1,0 -0,3 0,7 3,1 5,9 9 5 14 7 NNE 1024,0 4,7 0 0,0
19.02.2018 00:00:00 1,1 0,2 0,8 3,2 5,9 9 5 14 8 NE 1024,5 3,3 0 0,0
18.02.2018 23:00:00 1,2 0,2 0,7 3,2 5,9 6 3 12 6 NNE 1024,8 2,8 0 0,0
18.02.2018 22:00:00 1,1 0,4 0,8 3,3 6,0 8 4 13 7 NE 1025,0 2,9 0 0,0
18.02.2018 21:00:00 1,0 0,1 0,8 3,2 5,9 6 3 11 6 NNE 1025,4 3,1 0 0,0
18.02.2018 20:00:00 0,8 -0,2 0,7 3,3 6,0 5 3 10 6 N 1026,1 3,3 0 0,0
18.02.2018 19:00:00 0,6 -0,4 0,7 3,2 6,0 6 4 14 8 N 1026,5 3,8 0 0,0
18.02.2018 18:00:00 0,6 -0,6 0,7 3,1 6,0 10 5 18 10 N 1026,7 5 0 0,0
18.02.2018 17:00:00 1,1 -0,5 1,6 3,0 6,0 12 6 17 9 NNE 1026,9 7 0 0,0
18.02.2018 16:00:00 1,2 -0,4 2,3 2,8 6,0 10 5 26 14 NNE 1027,2 7 4 0,0
18.02.2018 15:00:00 1,1 -0,2 2,6 2,5 6,0 12 7 19 10 N 1027,3 7 0 0,0
18.02.2018 14:00:00 1,7 -0,1 4,4 2,3 6,0 11 6 19 11 NNE 1027,4 7 23 0,0
18.02.2018 13:00:00 1,1 -0,2 3,1 2,2 6,0 9 5 16 8 N 1027,8 5 2 0,0
18.02.2018 12:00:00 0,7 -0,2 1,9 2,1 6,0 8 5 13 7 N 1028,1 3,8 0 0,0
18.02.2018 11:00:00 0,0 -0,6 0,1 2,1 6,0 6 3 10 5 NNW 1028,4 3,5 0 0,0
18.02.2018 10:00:00 -0,4 -0,8 -0,1 2,2 6,0 5 3 10 6 NNW 1028,4 2,6 0 0,0
18.02.2018 09:00:00 -0,6 -1,0 -0,5 2,2 6,0 7 4 12 7 NNW 1028,4 0,8 0 0,0
18.02.2018 08:00:00 -0,4 -1,0 -0,5 2,3 6,0 9 5 13 7 NNE 1028,5 2,1 0 0,0
18.02.2018 07:00:00 -0,1 -0,7 -0,8 2,4 6,0 4 2 9 5 N 1028,2 3,7 0 0,0
18.02.2018 06:00:00 -0,1 -0,5 -1,6 2,4 6,0 4 2 9 5 N 1027,6 3,4 0 0,0
18.02.2018 05:00:00 -0,8 -1,2 -3,8 2,5 6,0 3 1 6 4 NNW 1027,8 4,1 0 0,0
18.02.2018 04:00:00 -1,4 -2,0 -3,9 2,6 6,0 4 2 7 4 NW 1027,6 1,4 0 0,0
18.02.2018 03:00:00 -1,0 -1,6 -3,5 2,6 6,0 3 2 5 3 NW 1027,5 0,4 0 0,0
18.02.2018 02:00:00 -0,4 -1,0 -2,8 2,7 6,0 2 1 5 3 NW 1027,2 1,1 0 0,0
18.02.2018 01:00:00 0,3 -0,3 -0,4 2,7 6,0 3 1 6 3 N 1026,8 3,9 0 0,0
18.02.2018 00:00:00 0,5 -0,4 -0,2 2,8 6,0 3 1 11 6 N 1026,5 6 0 0,0
17.02.2018 23:00:00 0,9 0,2 0,2 2,8 6,0 10 5 20 11 N 1025,9 7 0 0,0
17.02.2018 22:00:00 1,2 0,5 0,7 2,9 6,0 14 8 24 13 N 1025,2 6 0 0,0
17.02.2018 21:00:00 1,0 0,4 0,4 2,9 6,0 16 9 28 15 N 1024,6 5 0 0,0
17.02.2018 20:00:00 0,8 0,4 0,2 3,0 6,0 17 9 24 13 N 1024,0 2,5 0 0,8
17.02.2018 19:00:00 0,8 0,2 0,2 3,0 6,0 14 8 23 12 N 1023,4 2,2 0 0,8
17.02.2018 18:00:00 1,0 0,3 0,3 3,0 6,0 16 8 23 13 N 1022,1 3,0 0 0,6
17.02.2018 17:00:00 1,3 0,7 0,9 3,0 5,9 14 7 26 14 NNE 1020,9 4,6 0 0,4
17.02.2018 16:00:00 1,2 0,6 0,9 3,1 6,0 15 8 23 13 N 1020,0 4,8 0 0,4
17.02.2018 15:00:00 1,2 0,6 0,9 3,2 6,0 14 8 31 17 NNE 1019,0 4,2 0 0,4
17.02.2018 14:00:00 1,0 0,4 0,5 3,3 6,0 21 11 30 16 NNE 1018,6 4,0 0 0,8
17.02.2018 13:00:00 0,8 0,2 0,3 3,3 6,0 18 10 30 16 NNE 1018,3 1,6 0 1,6
17.02.2018 12:00:00 0,9 0,3 0,3 3,4 6,0 18 10 33 18 NNE 1018,6 1,7 0 2,5
17.02.2018 11:00:00 1,3 0,4 0,7 3,4 6,0 18 10 30 16 N 1018,4 1,4 0 1,6
17.02.2018 10:00:00 1,9 1,2 1,5 3,4 6,0 13 7 27 15 NNE 1018,1 3,9 0 0,6
17.02.2018 09:00:00 1,6 0,9 1,4 3,4 5,9 18 10 24 13 NNE 1018,7 3,1 0 1,4
17.02.2018 08:00:00 1,9 1,0 1,6 3,5 5,9 15 8 20 11 N 1019,8 3,5 0 0,8
17.02.2018 07:00:00 2,0 1,1 1,5 3,6 6,0 11 6 20 11 NNW 1020,0 4,4 0 0,0
17.02.2018 06:00:00 1,8 0,9 1,4 3,6 6,0 10 5 16 9 N 1020,3 5 0 0,0
17.02.2018 05:00:00 1,8 0,9 1,1 3,7 6,0 9 5 15 8 NNW 1021,4 6 0 0,0
17.02.2018 04:00:00 1,6 0,7 0,9 3,9 6,0 13 7 19 11 N 1022,0 6 0 0,0
17.02.2018 03:00:00 1,6 0,9 0,2 4,0 6,0 10 5 14 8 N 1023,3 6 0 0,0
17.02.2018 02:00:00 1,2 0,5 -0,7 4,1 5,9 10 5 14 7 N 1023,9 5 0 0,0
17.02.2018 01:00:00 1,5 0,6 -0,3 4,3 6,0 8 4 10 6 N 1024,9 6 0 0,0
17.02.2018 00:00:00 2,5 1,3 1,1 4,5 6,0 7 4 13 7 N 1025,3 8 0 0,0
16.02.2018 23:00:00 2,4 0,9 0,7 4,6 6,0 10 5 14 7 N 1025,7 11 0 0,0
16.02.2018 22:00:00 2,1 0,6 -0,8 4,8 6,0 10 5 14 8 NNW 1025,9 13 0 0,0
16.02.2018 21:00:00 2,6 0,8 -0,4 4,9 5,9 0 0 9 5 N 1026,0 15 0 0,0
16.02.2018 20:00:00 4,1 1,1 1,8 5,0 6,0 3 2 18 10 N 1026,3 19 0 0,0
16.02.2018 19:00:00 4,8 1,8 3,3 5,0 6,0 6 3 13 7 N 1026,8 34 0 0,0
16.02.2018 18:00:00 7,1 1,6 5,0 5,0 6,0 6 3 13 7 N 1026,7 53 2 0,0
16.02.2018 17:00:00 8,8 2,1 8,4 4,8 6,0 9 5 15 8 NNE 1026,5 41 54 0,0
16.02.2018 16:00:00 8,9 3,5 9,4 4,6 6,0 12 6 16 9 NNE 1026,6 42 6 0,0
16.02.2018 15:00:00 8,7 4,1 9,7 4,3 6,0 11 6 22 12 NNE 1026,9 37 0 0,0
16.02.2018 14:00:00 9,4 3,8 10,9 4,0 6,0 6 4 13 7 NNW 1027,1 49 11 0,0
16.02.2018 13:00:00 9,5 3,9 12,4 3,7 6,0 5 3 12 6 ENE 1027,5 50 39 0,0
16.02.2018 12:00:00 9,4 4,4 11,2 3,4 6,0 5 3 12 6 SSE 1027,6 44 26 0,0
16.02.2018 11:00:00 8,4 3,6 9,1 3,3 6,0 3 2 9 5 ENE 1027,6 58 24 0,0
16.02.2018 10:00:00 6,9 5,5 6,7 3,2 6,0 4 2 8 4 SW 1027,0 39 35 0,0
16.02.2018 09:00:00 5,3 5,0 3,7 3,2 6,0 0 0 6 4 N 1026,6 7 2 0,0
16.02.2018 08:00:00 4,3 4,0 3,4 3,2 6,0 5 3 11 6 S 1025,7 7 0 0,0
16.02.2018 07:00:00 4,1 3,7 3,4 3,2 6,0 8 4 10 5 SW 1025,1 20 0 0,0
16.02.2018 06:00:00 4,4 4,1 3,5 3,2 6,0 6 3 7 4 SSW 1024,5 2,0 0 0,0
16.02.2018 05:00:00 4,5 4,1 3,7 3,1 6,0 4 2 6 3 SE 1023,9 2,2 0 0,0
16.02.2018 04:00:00 4,8 4,4 4,1 3,1 6,1 4 2 10 5 S 1023,3 2,2 0 0,2
16.02.2018 03:00:00 4,9 4,6 3,9 3,1 6,1 6 3 8 4 S 1022,9 2,7 0 0,0
16.02.2018 02:00:00 4,9 4,5 4,1 3,0 6,1 3 1 5 3 SE 1022,0 3,1 0 0,0
16.02.2018 01:00:00 5,4 4,8 4,3 2,9 6,1 4 2 8 5 NW 1021,5 11 0 0,6
16.02.2018 00:00:00 4,8 4,4 4,5 2,8 6,1 6 3 10 6 N 1020,9 2,2 0 0,4
15.02.2018 23:00:00 5,1 4,7 4,8 2,8 6,1 6 3 16 9 NNW 1019,9 2,5 0 1,4
15.02.2018 22:00:00 5,6 5,2 5,2 2,6 6,1 8 5 11 6 NNW 1019,0 1,3 0 1,6
15.02.2018 21:00:00 5,9 5,2 5,4 2,5 6,1 5 3 14 8 SSW 1018,3 2,3 0 1,2
15.02.2018 20:00:00 6,2 5,2 5,4 2,4 6,1 8 4 16 9 S 1018,2 7 0 0,2
15.02.2018 19:00:00 6,1 4,9 5,5 2,3 6,1 10 5 22 12 S 1018,2 10 0 0,2
15.02.2018 18:00:00 6,2 4,7 5,3 2,1 6,1 14 8 24 13 S 1017,6 11 0 0,0
15.02.2018 17:00:00 5,9 4,4 5,2 2,0 6,1 10 6 18 10 S 1017,5 11 0 0,0
15.02.2018 16:00:00 5,6 3,9 5,1 1,8 6,1 9 5 24 13 SSW 1017,4 13 0 0,0
15.02.2018 15:00:00 5,3 3,6 5,0 1,7 6,1 14 8 24 13 S 1016,9 9 0 0,0
15.02.2018 14:00:00 4,5 3,0 3,9 1,6 6,1 14 8 22 12 S 1016,9 8 0 0,0
15.02.2018 13:00:00 3,5 2,2 2,6 1,6 6,2 15 8 23 12 S 1017,3 6 0 0,2
15.02.2018 12:00:00 2,5 0,9 2,4 1,6 6,2 13 7 24 13 S 1017,2 5 0 0,0
15.02.2018 11:00:00 2,5 0,1 2,0 1,6 6,2 12 6 24 13 S 1016,7 9 0 0,0
15.02.2018 10:00:00 1,6 -0,8 1,3 1,6 6,2 12 6 21 11 SSE 1016,6 10 0 0,0
15.02.2018 09:00:00 1,3 -1,6 0,6 1,6 6,1 12 7 19 10 S 1016,3 12 0 0,0
15.02.2018 08:00:00 0,9 -1,5 0,5 1,6 6,2 11 6 22 12 SSE 1016,5 7 0 0,0
15.02.2018 07:00:00 0,9 -2,3 0,6 1,7 6,2 9 5 27 15 SSE 1016,8 12 0 0,0
15.02.2018 06:00:00 1,4 -3,1 0,4 1,6 6,2 12 6 19 10 SSE 1016,6 16 0 0,0
15.02.2018 05:00:00 0,9 -3,0 0,1 1,7 6,2 9 5 19 10 SSE 1016,6 13 0 0,0
15.02.2018 04:00:00 0,7 -3,0 -0,7 1,7 6,2 8 5 16 8 S 1016,7 14 0 0,0
15.02.2018 03:00:00 -0,2 -3,1 -1,2 1,8 6,2 5 3 11 6 SE 1017,4 17 0 0,0
15.02.2018 02:00:00 0,0 -3,6 -0,8 1,8 6,2 2 1 17 9 WSW 1017,7 18 0 0,0
15.02.2018 01:00:00 0,0 -3,2 -3,7 1,8 6,2 10 5 18 10 SE 1017,6 15 0 0,0
15.02.2018 00:00:00 -2,4 -4,1 -3,7 1,9 6,2 7 4 10 5 SSE 1018,3 11 0 0,0
14.02.2018 23:00:00 -2,5 -4,1 -4,3 1,9 6,2 2 1 8 5 S 1018,6 8 0 0,0
14.02.2018 22:00:00 -1,3 -4,1 -3,5 2,0 6,3 10 5 12 7 WSW 1018,7 9 0 0,0
14.02.2018 21:00:00 -0,7 -3,7 -2,6 2,0 6,2 5 3 7 4 WSW 1018,8 16 0 0,0
14.02.2018 20:00:00 -0,4 -4,1 -3,1 2,0 6,3 4 2 7 4 E 1018,6 21 0 0,0
14.02.2018 19:00:00 1,0 -4,2 -2,2 1,9 6,2 6 3 9 5 E 1018,7 17 0 0,0
14.02.2018 18:00:00 2,2 -5,2 -1,6 1,8 6,3 3 1 6 3 SSE 1018,1 29 14 0,0
14.02.2018 17:00:00 5,0 -4,6 3,5 1,6 6,3 3 2 10 6 SE 1017,9 34 60 0,0
14.02.2018 16:00:00 5,4 -5,6 9,7 1,6 6,3 5 3 16 9 SSE 1018,0 32 60 0,0
14.02.2018 15:00:00 5,4 -5,6 10,4 1,6 6,3 7 4 19 10 E 1017,8 32 60 0,0
14.02.2018 14:00:00 4,6 -4,9 9,2 1,6 6,3 4 2 14 8 E 1018,2 19 60 0,0
14.02.2018 13:00:00 3,8 -4,4 7,0 1,6 6,3 7 4 15 8 SE 1018,4 32 60 0,0
14.02.2018 12:00:00 2,4 -4,4 5,7 1,6 6,3 3 2 15 8 E 1018,8 20 60 0,0
14.02.2018 11:00:00 1,6 -3,9 3,8 1,7 6,3 4 2 8 4 S 1018,8 18 60 0,0
14.02.2018 10:00:00 -1,1 -4,5 -0,2 1,8 6,3 3 2 6 3 N 1018,6 14 60 0,0
14.02.2018 09:00:00 -3,4 -5,0 -6,9 1,8 6,3 3 2 6 3 SW 1018,3 13 57 0,0
14.02.2018 08:00:00 -6,1 -7,8 -8,7 1,9 6,3 0 0 7 4 N 1017,7 9 0 0,0
14.02.2018 07:00:00 -5,7 -6,8 -8,9 1,9 6,4 5 3 7 4 NNE 1017,2 10 0 0,0
14.02.2018 06:00:00 -5,7 -6,9 -8,4 2,0 6,3 0 0 8 4 N 1016,3 9 0 0,0
14.02.2018 05:00:00 -5,2 -6,3 -8,2 2,1 6,4 5 3 7 4 SW 1015,4 11 0 0,0
14.02.2018 04:00:00 -5,6 -6,7 -8,1 2,2 6,4 3 2 6 3 N 1014,8 11 0 0,0
14.02.2018 03:00:00 -5,2 -6,6 -7,2 2,3 6,4 4 2 7 4 W 1014,3 10 0 0,0
14.02.2018 02:00:00 -4,3 -5,8 -7,1 2,4 6,4 4 2 5 3 W 1014,0 10 0 0,0
14.02.2018 01:00:00 -3,6 -5,2 -6,3 2,5 6,4 5 3 6 3 WNW 1013,5 14 0 0,0

tt = Température de l'air
td = dewpoint
tt 5cm = Température de l'air 5cm
tt -20cm = Température de l'air -20cm
tt -100cm = Température de l'air -100cm
ff = Vitesse du vent
fx = gusts
dd = Direction du vent
ppp = reduced air pressure
vv = visibility
sd = Ensoleillement
rr = Quantités de précipitations

stations d'obs. à proximité